APRIZESAT 3

Last updated on July 6, 2021, 3:39 p.m. UTC

1 35686U 09041F   21186.77034110  .00000113  00000-0  18730-4 0  9991
2 35686  98.1357 260.3832 0071532 237.8001 121.6265 14.87521785647060
UTC
Height (km)
Latitude
Longitude
Inclination
Orbital Period
UTC large
Height (km)
Speed (km/s)
/
Latitude / Longitude
Inclination (degrees)
Orbital Period (minutes)
Azimuth
Elevation
Range (km)
Doppler Factor
iOS Compass Heading
iOS Angle